Hourly Data Report for September 22, 2017

All times are specified in Local Standard Time (LST). Add 1 hour to adjust for Daylight Saving Time where and when it is observed.

ARVIAT A
NUNAVUT

61°05'38.000" N
94°04'18.000" W
10.40 m
2300427
71174
YEK

Download Data

Hourly Data (September 2017)
Hourly Data Report for September 22, 2017
Temp Definition
°C
Dew Point Temp Definition
°C
Rel Hum Definition
%
Wind Dir Definition
10's deg

Wind Spd Definition
km/h
Visibility Definition
km
Stn Press Definition
kPa
Hmdx Definition


Wind Chill Definition


Weather Definition


TIME
00:00 Legend Double Dagger 4.3 3.0 91 7 35 16.1 101.31     Rain
01:00 Legend Double Dagger 4.2 2.8 91 6 39 16.1 101.33     Rain
02:00 Legend Double Dagger 3.8 2.8 93 6 32 4.8 101.37     Rain,Fog
03:00 Legend Double Dagger 3.8 2.8 93 6 34 4.8 101.35     Rain,Fog
04:00 Legend Double Dagger 4.2 3.0 92 4 37 16.1 101.33     Rain
05:00 Legend Double Dagger 4.3 3.0 91 4 34 16.1 101.39     LegendNANA
06:00 Legend Double Dagger 4.6 2.8 88 5 35 16.1 101.43     LegendNANA
07:00 Legend Double Dagger 4.5 2.5 87 5 35 16.1 101.49     Rain
08:00 Legend Double Dagger 4.2 2.8 91 5 35 16.1 101.56     Rain
09:00 Legend Double Dagger 4.6 2.6 87 4 24 16.1 101.61     Rain
10:00 Legend Double Dagger 3.4 3.0 97 1 34 4.0 101.65     Rain,Fog
11:00 Legend Double Dagger 3.8 3.1 95 1 32 16.1 101.69     Rain
12:00 Legend Double Dagger 3.8 2.6 92 1 34 16.1 101.70     LegendNANA
13:00 Legend Double Dagger 3.7 2.5 92 1 34 16.1 101.76     LegendNANA
14:00 Legend Double Dagger 4.3 2.0 85 36 34 16.1 101.81     Rain
15:00 Legend Double Dagger 4.5 1.0 78 1 30 16.1 101.89     Rain
16:00 Legend Double Dagger 5.1 0.8 74 2 28 16.1 101.92     LegendNANA
17:00 Legend Double Dagger 5.4 0.1 69 36 28 16.1 101.97     LegendNANA
18:00 Legend Double Dagger 5.3 -0.5 66 35 24 16.1 102.05     LegendNANA
19:00 Legend Double Dagger 4.4 0.0 73 2 22 16.1 102.03     LegendNANA
20:00 Legend Double Dagger 4.4 0.1 74 1 17 16.1 102.05     LegendNANA
21:00 Legend Double Dagger 3.0 0.9 86 33 11 16.1 102.13     LegendNANA
22:00 Legend Double Dagger 1.5 0.0 90 33 13 16.1 102.16     LegendNANA
23:00 Legend Double Dagger 0.8 -0.8 89 34 9 16.1 102.16     LegendNANA

Notes on Data Quality.

Legend

  • E = Estimated
  • M = Missing
  • NA = Not Available
  • ‡ = Partner data that is not subject to review by the National Climate Archives
Date modified: